[[{"header":{"parameterUnit":"m.s-1","parameterCategory":1,"la1":30.2991,"la2":30.254,"lo1":-89.0895,"lo2":-89.0444,"dy":0.0017,"dx":0.0017,"nx":28,"ny":28,"refTime":"2023-09-12T21:00:00:Z","depth":0,"parameterNumber":2,"parameterNumberName":"U-component_of_WINDS"},"data":[0,0,0,0,0,0,0,0,0,0,0,0,0,0,0,0,0,0,0,0,0,0,0,0,0,0,0,0,0,0,0,0,0,0,0,0,0,0,0,0,0,0,0,0,0,0,0,0,0,0,0,0,0,0,0,0,0,0,2.301,2.3011,0,2.3095,2.3096,2.3097,2.3071,2.3069,2.3067,2.3065,2.3159,2.3163,2.3168,0,0,0,0,0,0,0,0,0,0,0,0,0,2.2833,2.2836,2.301,2.3011,2.3012,2.3095,2.3096,2.3097,2.3071,2.3069,2.3067,2.3065,2.3158,2.3163,2.3168,0,0,0,0,0,0,0,0,0,0,0,0,0,2.2913,2.2837,2.301,2.3009,2.301,2.3095,2.3096,2.3098,2.3071,2.3069,2.3066,2.3063,2.3156,2.3162,2.3169,2.3262,0,0,2.3188,2.3191,0,0,0,0,0,0,0,0,2.2909,2.292,2.3008,2.3009,2.301,2.3069,2.3068,2.3153,2.3072,2.3048,2.3065,2.3062,2.3132,2.314,2.3162,2.3267,2.3271,2.3188,2.3192,2.3195,2.3197,0,0,0,0,0,0,0,2.2903,2.2916,2.3044,2.3009,2.3011,2.3007,2.3015,2.3084,2.3105,2.305,2.3048,2.3058,2.3132,2.3156,2.3164,2.3272,2.3188,2.3194,2.3198,2.32,2.346,2.3463,0,0,0,0,0,0,2.2896,2.2911,2.3041,2.3046,2.2951,2.3012,2.3022,2.3053,2.3104,2.3109,2.3061,2.3057,2.3147,2.3157,2.3168,2.3282,2.3195,2.3201,2.3204,2.3457,2.3461,2.3464,0,0,0,0,0,0,2.2892,2.2908,2.3038,2.2979,2.2995,2.3018,2.3054,2.3056,2.308,2.3112,2.3116,2.3081,2.3145,2.3159,2.3239,2.3285,2.3204,2.3209,2.3453,2.3458,2.3462,2.3511,0,0,0,0,0,0,2.2887,2.2906,2.294,2.2979,2.2998,2.3106,2.3057,2.306,2.309,2.3086,2.3132,2.3137,2.3144,2.323,2.3245,2.3292,2.3214,2.3449,2.3455,2.3461,2.3505,2.3517,2.3526,0,0,0,0,0,2.2881,2.2951,2.2942,2.2958,2.304,2.3108,2.3119,2.3124,2.3094,2.313,2.315,2.3136,2.3277,2.3238,2.3255,2.3305,2.3446,2.3454,2.3461,2.3501,2.3514,2.3526,0,0,0,0,0,0,2.2919,2.2956,2.2946,2.3031,2.3066,2.3103,2.3148,2.3138,2.3184,2.3179,2.3185,2.3195,2.3278,2.3299,2.3255,2.3399,2.3358,2.3369,2.3382,2.3396,2.3406,2.34,2.322,0,0,0,0,0,2.2937,2.2986,2.3017,2.3089,2.3107,2.3125,2.3155,2.3155,2.3193,2.3208,2.3234,2.3274,2.3327,2.3363,2.3413,2.3508,2.3519,2.3551,2.3561,2.357,2.358,2.3634,2.3649,2.3487,2.3487,2.3487,0,0,2.2975,2.3002,2.3033,2.3098,2.3125,2.3179,2.3138,2.3196,2.3237,2.3218,2.3295,2.3316,2.336,2.3449,2.3489,2.3469,2.3627,2.3579,2.3585,2.3591,2.3643,2.3658,2.3671,2.3492,2.3491,2.349,0,0,2.3072,2.3096,2.316,2.3188,2.3229,2.3241,2.3256,2.3295,2.3308,2.3385,2.3372,2.3422,2.3514,2.3546,2.3575,2.3686,2.3676,2.3703,2.3759,2.3811,2.3824,2.3835,2.3877,2.3892,2.3712,2.3713,2.3713,0,2.3115,2.3193,2.3194,2.3254,2.3284,2.3268,2.3334,2.3362,2.3419,2.3441,2.3418,2.3533,2.3562,2.3659,2.3686,2.3709,2.3729,2.3698,2.3821,2.3833,2.3844,2.3884,2.3899,2.3716,2.3715,2.3715,2.3715,0,2.3245,2.33,2.3347,2.34,2.3436,2.3498,2.3512,2.3548,2.3546,2.3561,2.3641,2.3675,2.3733,2.3756,2.3755,2.3854,2.384,2.3819,2.3778,2.3862,2.39,2.3915,2.372,2.3719,2.3718,2.3717,0,0,2.3369,2.3422,2.344,2.3465,2.351,2.3554,2.3617,2.3672,2.3704,2.3744,2.3799,2.3878,2.3859,2.3891,2.3894,2.394,2.4029,2.3914,2.3915,2.3936,2.4143,2.4159,2.4177,2.4022,2.4025,2.4027,2.414,0,2.3471,2.358,2.3583,2.3684,2.3736,2.3722,2.3778,2.3813,2.3829,2.3878,2.3896,2.3952,2.3922,2.3942,2.3986,2.4009,2.4071,2.4001,2.4076,2.4078,2.4066,2.4196,2.4214,2.4318,2.4154,2.4157,2.4158,0,2.3605,2.3648,2.3753,2.3792,2.3815,2.3864,2.3916,2.3962,2.4003,2.4011,2.4048,2.4045,2.4113,2.4068,2.4163,2.4115,2.4146,2.4162,2.4166,2.4175,2.4124,2.421,2.4352,2.4368,2.4181,2.418,2.4178,0,2.3687,2.3772,2.3846,2.3868,2.3915,2.395,2.3972,2.401,2.4043,2.409,2.4112,2.4166,2.4196,2.424,2.4252,2.4218,2.4348,2.4304,2.436,2.4359,2.4389,2.4387,2.4539,2.4406,2.4406,2.4406,2.4405,0,2.3802,2.3868,2.3883,2.3929,2.4003,2.4008,2.4082,2.4102,2.4136,2.4188,2.4179,2.4228,2.4241,2.4293,2.4304,2.4382,2.4396,2.4407,2.4409,2.4408,2.4407,2.443,2.4423,2.441,2.4409,2.4408,2.4407,0,2.3907,2.392,2.4,2.4038,2.4049,2.4102,2.4136,2.4182,2.4196,2.4262,2.4278,2.4302,2.4364,2.438,2.4454,2.4461,2.4554,2.4549,2.454,2.454,2.4595,2.4591,2.4769,2.4793,2.4643,2.4644,2.4645,0,2.398,2.403,2.4073,2.4106,2.4129,2.4182,2.4216,2.4223,2.426,2.4311,2.4351,2.4411,2.4459,2.4558,2.4584,2.4642,2.4639,2.4697,2.4648,2.4646,2.4642,2.4639,2.4646,2.4707,2.4709,2.471,2.4711,0,2.4109,2.4113,2.4161,2.4212,2.4253,2.4294,2.4333,2.4361,2.4375,2.4416,2.4478,2.4515,2.459,2.4651,2.4709,2.4734,2.4727,2.4726,2.4743,2.4743,2.4736,2.4743,2.4567,2.4723,2.4721,2.4721,2.472,2.472,2.4202,2.4246,2.4284,2.4338,2.4368,2.4406,2.4451,2.4471,2.4521,2.4582,2.4584,2.4652,2.4694,2.477,2.4798,2.4853,2.4836,2.4859,2.4865,2.4871,2.4877,2.4726,2.4864,2.4864,2.4863,2.4863,2.4863,0,2.4332,2.4356,2.4406,2.446,2.4504,2.449,2.4533,2.4572,2.4631,2.4669,2.4717,2.4789,2.4848,2.4878,2.4938,2.4976,2.4974,2.4992,2.499,2.4996,2.4888,2.4869,2.4992,2.4992,2.4992,2.4992,2.4992,2.4992,2.4405,2.448,2.4489,2.458,2.4604,2.4668,2.4695,2.473,2.4761,2.4841,2.4889,2.4908,2.4945,2.5007,2.5061,2.5069,2.5092,2.5112,2.5118,2.5017,2.5004,2.4991,2.4973,2.5117,2.5117,2.5222,2.5223,2.5224]},{"header":{"parameterUnit":"m.s-1","parameterCategory":1,"la1":30.2991,"la2":30.254,"lo1":-89.0895,"lo2":-89.0444,"dy":0.0017,"dx":0.0017,"nx":28,"ny":28,"refTime":"2023-09-12T21:00:00:Z","depth":0,"parameterNumber":3,"parameterNumberName":"V-component_of_WINDS"},"data":[0,0,0,0,0,0,0,0,0,0,0,0,0,0,0,0,0,0,0,0,0,0,0,0,0,0,0,0,0,0,0,0,0,0,0,0,0,0,0,0,0,0,0,0,0,0,0,0,0,0,0,0,0,0,0,0,0,0,1.7241,1.7242,0,1.7303,1.7303,1.7304,1.7295,1.7294,1.7293,1.7292,1.7353,1.7355,1.7358,0,0,0,0,0,0,0,0,0,0,0,0,0,1.7112,1.7114,1.7241,1.7242,1.7243,1.7302,1.7303,1.7304,1.7295,1.7294,1.7293,1.7292,1.7352,1.7355,1.7358,0,0,0,0,0,0,0,0,0,0,0,0,0,1.717,1.7115,1.7241,1.7245,1.7246,1.7302,1.7303,1.7304,1.7295,1.7294,1.7292,1.7291,1.7351,1.7355,1.7359,1.7413,0,0,1.737,1.7372,0,0,0,0,0,0,0,0,1.7167,1.7175,1.7244,1.7245,1.7246,1.729,1.728,1.7341,1.7296,1.7277,1.7292,1.729,1.7333,1.7338,1.7353,1.7416,1.7419,1.7371,1.7373,1.7375,1.7376,0,0,0,0,0,0,0,1.7163,1.7172,1.7265,1.7245,1.7247,1.7243,1.725,1.7292,1.7313,1.7278,1.7278,1.7285,1.7333,1.7349,1.7354,1.742,1.7371,1.7374,1.7377,1.7378,1.7526,1.7528,0,0,0,0,0,0,1.7158,1.7169,1.7263,1.7267,1.7202,1.7247,1.7254,1.7277,1.7312,1.7316,1.7287,1.7285,1.7344,1.735,1.7357,1.742,1.7375,1.7378,1.7381,1.7525,1.7527,1.7528,0,0,0,0,0,0,1.7155,1.7167,1.7261,1.7218,1.723,1.725,1.7277,1.7279,1.7295,1.7319,1.7322,1.7299,1.7343,1.7351,1.7398,1.7422,1.738,1.7384,1.7523,1.7525,1.7528,1.7548,0,0,0,0,0,0,1.7152,1.7166,1.7188,1.7219,1.7232,1.7303,1.7278,1.7282,1.7302,1.73,1.7331,1.7335,1.7342,1.7393,1.7402,1.7426,1.7387,1.7521,1.7524,1.7527,1.7546,1.7551,1.7556,0,0,0,0,0,1.7147,1.7192,1.7189,1.72,1.726,1.7305,1.7312,1.732,1.7304,1.7326,1.734,1.7334,1.7418,1.7398,1.7408,1.7434,1.7519,1.7523,1.7527,1.7543,1.755,1.7556,0,0,0,0,0,0,1.7163,1.7196,1.7193,1.725,1.7274,1.7303,1.733,1.7328,1.7357,1.7354,1.7362,1.7368,1.7416,1.743,1.7407,1.7487,1.7466,1.7472,1.7475,1.7482,1.7487,1.7482,1.739,0,0,0,0,0,1.7174,1.7208,1.7234,1.7281,1.7294,1.731,1.733,1.7333,1.7359,1.7369,1.7387,1.7412,1.7443,1.7464,1.7494,1.7548,1.7553,1.7571,1.7576,1.758,1.7584,1.761,1.7617,1.754,1.754,1.754,0,0,1.7195,1.7217,1.7238,1.7285,1.7304,1.7338,1.7319,1.7356,1.738,1.7375,1.742,1.7434,1.7461,1.7511,1.7534,1.7524,1.7607,1.7585,1.7588,1.759,1.7615,1.7622,1.7628,1.7543,1.7542,1.7542,0,0,1.725,1.7272,1.7311,1.7331,1.7361,1.7371,1.738,1.7409,1.7418,1.7463,1.7459,1.7487,1.7542,1.7561,1.7578,1.7637,1.7631,1.7647,1.7673,1.7698,1.7704,1.7709,1.7727,1.7734,1.7651,1.7651,1.7651,0,1.7272,1.7324,1.7332,1.7368,1.7388,1.7384,1.7423,1.7441,1.7479,1.7492,1.7481,1.7548,1.7566,1.7619,1.7633,1.7648,1.7656,1.7642,1.7703,1.7708,1.7713,1.773,1.7737,1.7653,1.7653,1.7653,1.7652,0,1.7348,1.7383,1.7412,1.7447,1.747,1.7508,1.752,1.7542,1.7543,1.7553,1.7597,1.7619,1.7653,1.7666,1.7668,1.7717,1.771,1.7701,1.768,1.7722,1.7738,1.7745,1.7655,1.7654,1.7654,1.7654,0,0,1.7415,1.7454,1.7464,1.7479,1.751,1.7537,1.7573,1.7605,1.7622,1.7648,1.7677,1.7722,1.7713,1.7732,1.7736,1.7758,1.7799,1.7746,1.7746,1.7752,1.7851,1.7856,1.7864,1.7796,1.7798,1.7799,1.7848,0,1.7471,1.7536,1.7543,1.7599,1.763,1.7626,1.7657,1.7678,1.7689,1.7715,1.7727,1.7757,1.7744,1.7755,1.7777,1.7789,1.7819,1.7786,1.782,1.7821,1.7811,1.7873,1.7879,1.7924,1.7854,1.7856,1.7856,0,1.7545,1.7572,1.7631,1.7655,1.7669,1.7697,1.7725,1.7751,1.7774,1.778,1.78,1.78,1.7835,1.7814,1.786,1.7838,1.7853,1.786,1.7862,1.7864,1.784,1.7873,1.7939,1.7945,1.7867,1.7866,1.7865,0,1.7584,1.7635,1.7677,1.769,1.772,1.7739,1.7752,1.7774,1.7792,1.7817,1.7828,1.7857,1.7872,1.7893,1.79,1.7885,1.7945,1.7926,1.7948,1.7948,1.796,1.7959,1.8026,1.7973,1.7973,1.7973,1.7973,0,1.7644,1.768,1.7694,1.7719,1.7758,1.7765,1.7803,1.7815,1.7834,1.786,1.7859,1.7883,1.7892,1.7917,1.7923,1.7958,1.7966,1.797,1.797,1.7969,1.7968,1.7977,1.7973,1.7975,1.7975,1.7974,1.7974,0,1.7694,1.7705,1.7749,1.7774,1.778,1.7808,1.7828,1.7851,1.786,1.7893,1.7901,1.7915,1.7944,1.7954,1.7989,1.7993,1.8033,1.8033,1.8025,1.8025,1.8046,1.8043,1.812,1.8129,1.8072,1.8073,1.8073,0,1.773,1.7757,1.7784,1.7801,1.7815,1.7843,1.7861,1.7869,1.7887,1.7914,1.7933,1.7962,1.7985,1.8031,1.8044,1.807,1.8068,1.8093,1.8072,1.8068,1.8065,1.8062,1.8064,1.8097,1.8097,1.8098,1.8098,0,1.7792,1.7796,1.7822,1.785,1.7871,1.7893,1.7914,1.7928,1.7938,1.7959,1.7988,1.8006,1.8041,1.8069,1.8095,1.8107,1.8103,1.8105,1.8111,1.8108,1.8102,1.8103,1.8033,1.8103,1.8102,1.8102,1.8102,1.8101,1.7835,1.7857,1.7879,1.7907,1.7923,1.7943,1.7964,1.7976,1.8001,1.803,1.8033,1.8064,1.8084,1.8118,1.8131,1.8154,1.8147,1.8157,1.8159,1.8161,1.8161,1.81,1.816,1.816,1.8159,1.8159,1.8159,0,1.7894,1.7907,1.7933,1.7962,1.7984,1.7979,1.8002,1.8019,1.8047,1.8066,1.8088,1.8121,1.8147,1.8161,1.8186,1.8202,1.8201,1.8208,1.8206,1.8208,1.8167,1.8158,1.8208,1.8208,1.8208,1.8208,1.8208,1.8208,1.7927,1.7964,1.797,1.8014,1.8027,1.8057,1.807,1.8087,1.8101,1.8137,1.8159,1.8168,1.8184,1.8211,1.8233,1.8237,1.8245,1.8253,1.8255,1.8216,1.8211,1.8206,1.8198,1.8255,1.8255,1.8293,1.8294,1.8294]}]]